[[{"header":{"parameterUnit":"m.s-1","parameterCategory":1,"la1":30.2991,"la2":30.254,"lo1":-89.0895,"lo2":-89.0444,"dy":0.0017,"dx":0.0017,"nx":28,"ny":28,"refTime":"2025-04-06T03:00:00:Z","depth":0,"parameterNumber":2,"parameterNumberName":"U-component_of_WINDS"},"data":[0,0,0,0,0,0,0,0,0,0,0,0,0,0,0,0,0,0,0,0,0,0,0,0,0,0,0,0,0,0,0,0,0,0,0,0,0,0,0,0,0,0,0,0,0,0,0,0,0,0,0,0,0,0,0,0,0,0,-2.0267,-2.0269,0,-2.043,-2.0432,-2.0434,-2.0499,-2.0499,-2.0498,-2.0498,-2.067,-2.0675,-2.068,0,0,0,0,0,0,0,0,0,0,0,0,0,-2.0017,-2.0021,-2.0267,-2.0269,-2.0271,-2.043,-2.0432,-2.0434,-2.0499,-2.0499,-2.0498,-2.0498,-2.0669,-2.0674,-2.068,0,0,0,0,0,0,0,0,0,0,0,0,0,-2.0147,-2.0022,-2.0266,-2.0322,-2.0329,-2.0429,-2.0432,-2.0435,-2.0499,-2.0499,-2.0498,-2.0498,-2.0667,-2.0674,-2.0681,-2.074,0,0,-2.0704,-2.0707,0,0,0,0,0,0,0,0,-2.014,-2.0156,-2.0312,-2.0319,-2.0326,-2.0444,-2.0407,-2.0537,-2.05,-2.0435,-2.0498,-2.0497,-2.0596,-2.0609,-2.0641,-2.0748,-2.0755,-2.0705,-2.0709,-2.0712,-2.0715,0,0,0,0,0,0,0,-2.0131,-2.015,-2.0332,-2.0314,-2.0323,-2.0341,-2.0359,-2.0432,-2.0517,-2.044,-2.0445,-2.0464,-2.0599,-2.0634,-2.0646,-2.0758,-2.0704,-2.0711,-2.0716,-2.0719,-2.0923,-2.0923,0,0,0,0,0,0,-2.0112,-2.0142,-2.0326,-2.0337,-2.0229,-2.0346,-2.0366,-2.0407,-2.0516,-2.0532,-2.0464,-2.0466,-2.0621,-2.0637,-2.0652,-2.0728,-2.0712,-2.0719,-2.0724,-2.0922,-2.0923,-2.0924,0,0,0,0,0,0,-2.0106,-2.0127,-2.032,-2.0241,-2.0266,-2.0351,-2.0396,-2.041,-2.0444,-2.0534,-2.055,-2.0483,-2.0621,-2.0641,-2.0717,-2.0735,-2.0723,-2.073,-2.0921,-2.0922,-2.0923,-2.088,0,0,0,0,0,0,-2.0098,-2.0125,-2.0147,-2.024,-2.027,-2.0381,-2.0397,-2.0414,-2.0457,-2.0461,-2.0556,-2.0571,-2.0622,-2.0706,-2.0725,-2.0745,-2.0735,-2.0919,-2.0921,-2.0923,-2.0881,-2.088,-2.088,0,0,0,0,0,-2.0089,-2.0129,-2.0147,-2.0169,-2.0299,-2.0381,-2.0399,-2.0455,-2.0458,-2.0481,-2.0539,-2.0568,-2.073,-2.0713,-2.0735,-2.0758,-2.0918,-2.0921,-2.0923,-2.0881,-2.088,-2.088,0,0,0,0,0,0,-2.0036,-2.0142,-2.0164,-2.0235,-2.0298,-2.0392,-2.0423,-2.0453,-2.0518,-2.052,-2.0589,-2.061,-2.068,-2.0727,-2.0706,-2.0821,-2.0827,-2.0833,-2.0787,-2.0788,-2.0787,-2.0774,-2.0742,0,0,0,0,0,-2.0033,-2.0089,-2.0179,-2.0233,-2.0264,-2.0338,-2.0376,-2.0414,-2.0484,-2.0511,-2.0575,-2.0643,-2.0709,-2.0751,-2.0817,-2.0888,-2.0911,-2.0915,-2.0914,-2.0914,-2.0918,-2.096,-2.0963,-2.0931,-2.0931,-2.0931,0,0,-2.0026,-2.0091,-2.0123,-2.0224,-2.0278,-2.0337,-2.036,-2.0421,-2.0466,-2.0521,-2.0596,-2.0645,-2.0726,-2.08,-2.0835,-2.0841,-2.0932,-2.0916,-2.0915,-2.092,-2.0963,-2.0966,-2.0968,-2.0932,-2.0932,-2.0932,0,0,-2.0044,-2.0098,-2.0149,-2.0203,-2.0283,-2.0333,-2.0345,-2.0435,-2.0469,-2.0545,-2.0588,-2.0643,-2.0756,-2.0811,-2.0854,-2.0894,-2.0924,-2.0914,-2.0912,-2.0952,-2.0954,-2.0957,-2.0972,-2.0976,-2.0919,-2.0919,-2.0919,0,-2.0026,-2.0114,-2.0172,-2.0231,-2.0275,-2.0326,-2.0379,-2.0429,-2.0528,-2.0558,-2.0562,-2.0705,-2.0763,-2.0851,-2.086,-2.0893,-2.0911,-2.0903,-2.0949,-2.0952,-2.0956,-2.097,-2.0975,-2.0917,-2.0917,-2.0917,-2.0917,0,-2.0088,-2.0149,-2.0181,-2.0273,-2.0321,-2.0376,-2.0445,-2.0487,-2.0521,-2.057,-2.0648,-2.0719,-2.0801,-2.0825,-2.0859,-2.0918,-2.0919,-2.0935,-2.0942,-2.0956,-2.0971,-2.0977,-2.0914,-2.0915,-2.0915,-2.0916,0,0,-2.0076,-2.02,-2.0211,-2.0253,-2.0347,-2.0396,-2.0455,-2.0533,-2.0568,-2.0635,-2.0686,-2.0781,-2.0797,-2.0846,-2.0887,-2.0923,-2.095,-2.0935,-2.0938,-2.0935,-2.102,-2.1006,-2.1012,-2.0971,-2.0972,-2.0973,-2.1013,0,-2.0106,-2.0211,-2.0266,-2.0348,-2.0406,-2.0456,-2.0508,-2.0572,-2.062,-2.0677,-2.0731,-2.0797,-2.0813,-2.0843,-2.088,-2.0939,-2.0968,-2.0937,-2.1021,-2.1023,-2.0998,-2.102,-2.1006,-2.104,-2.1019,-2.102,-2.1021,0,-2.0155,-2.022,-2.0307,-2.0394,-2.042,-2.0465,-2.0542,-2.0595,-2.067,-2.0702,-2.0757,-2.0798,-2.0864,-2.0867,-2.0959,-2.0936,-2.0975,-2.1009,-2.1012,-2.1022,-2.1022,-2.103,-2.1052,-2.1057,-2.1031,-2.103,-2.103,0,-2.0137,-2.0247,-2.0313,-2.0348,-2.0451,-2.0482,-2.0527,-2.06,-2.0644,-2.0712,-2.0741,-2.0816,-2.0858,-2.0916,-2.0977,-2.0973,-2.1064,-2.1071,-2.1094,-2.1092,-2.111,-2.1108,-2.1138,-2.1135,-2.1135,-2.1135,-2.1135,0,-2.0165,-2.0216,-2.0306,-2.0347,-2.0407,-2.0471,-2.0529,-2.0578,-2.0643,-2.0696,-2.0746,-2.0794,-2.0872,-2.0932,-2.098,-2.105,-2.1068,-2.1097,-2.111,-2.1093,-2.1089,-2.1118,-2.1117,-2.1136,-2.1136,-2.1136,-2.1135,0,-2.0155,-2.0217,-2.0293,-2.0384,-2.0409,-2.0449,-2.0528,-2.0571,-2.0621,-2.0688,-2.0707,-2.0787,-2.086,-2.0926,-2.1023,-2.1056,-2.1127,-2.1143,-2.1101,-2.1107,-2.1126,-2.1123,-2.1176,-2.1186,-2.1175,-2.1175,-2.1175,0,-2.0168,-2.0209,-2.0304,-2.0342,-2.0385,-2.0446,-2.0491,-2.0556,-2.06,-2.0688,-2.0721,-2.0796,-2.086,-2.0974,-2.1042,-2.1117,-2.1135,-2.1148,-2.1147,-2.1128,-2.1135,-2.1132,-2.1136,-2.1147,-2.1147,-2.1147,-2.1146,0,-2.0185,-2.0214,-2.0275,-2.0347,-2.0398,-2.0459,-2.0521,-2.055,-2.0627,-2.0675,-2.0749,-2.0798,-2.0897,-2.0971,-2.1054,-2.1103,-2.1138,-2.1147,-2.1156,-2.1139,-2.1112,-2.1127,-2.1098,-2.1145,-2.1145,-2.1145,-2.1145,-2.1145,-2.0187,-2.0226,-2.0298,-2.0365,-2.0419,-2.0476,-2.052,-2.0576,-2.0638,-2.0722,-2.0757,-2.0832,-2.0907,-2.1021,-2.107,-2.1131,-2.1138,-2.1151,-2.1155,-2.1157,-2.1153,-2.1103,-2.1146,-2.1146,-2.1146,-2.1147,-2.1147,0,-2.0206,-2.0256,-2.0316,-2.0401,-2.0454,-2.0481,-2.0552,-2.0595,-2.0659,-2.0725,-2.0787,-2.0872,-2.0945,-2.1019,-2.1097,-2.1132,-2.115,-2.115,-2.1148,-2.1159,-2.1142,-2.1126,-2.1134,-2.1134,-2.1134,-2.1134,-2.1134,-2.1134,-2.0222,-2.0289,-2.0326,-2.0421,-2.0471,-2.0543,-2.0581,-2.0635,-2.0688,-2.078,-2.084,-2.0887,-2.0957,-2.104,-2.1109,-2.113,-2.1156,-2.1152,-2.1176,-2.1159,-2.116,-2.116,-2.1146,-2.1157,-2.1157,-2.1188,-2.1188,-2.1188]},{"header":{"parameterUnit":"m.s-1","parameterCategory":1,"la1":30.2991,"la2":30.254,"lo1":-89.0895,"lo2":-89.0444,"dy":0.0017,"dx":0.0017,"nx":28,"ny":28,"refTime":"2025-04-06T03:00:00:Z","depth":0,"parameterNumber":3,"parameterNumberName":"V-component_of_WINDS"},"data":[0,0,0,0,0,0,0,0,0,0,0,0,0,0,0,0,0,0,0,0,0,0,0,0,0,0,0,0,0,0,0,0,0,0,0,0,0,0,0,0,0,0,0,0,0,0,0,0,0,0,0,0,0,0,0,0,0,0,6.9951,6.9951,0,6.9898,6.9897,6.9897,6.9842,6.9841,6.984,6.984,6.9779,6.9778,6.9777,0,0,0,0,0,0,0,0,0,0,0,0,0,7.0002,7.0002,6.9951,6.9951,6.995,6.9898,6.9897,6.9896,6.9842,6.9841,6.984,6.9839,6.9779,6.9778,6.9777,0,0,0,0,0,0,0,0,0,0,0,0,0,6.9968,7.0002,6.9951,6.9917,6.9913,6.9898,6.9897,6.9896,6.9842,6.9841,6.984,6.9839,6.9779,6.9778,6.9776,6.979,0,0,6.9772,6.9771,0,0,0,0,0,0,0,0,6.997,6.9966,6.9922,6.9919,6.9915,6.9875,6.9893,6.986,6.9842,6.9869,6.984,6.9838,6.9811,6.9807,6.9799,6.9787,6.9784,6.9772,6.9771,6.977,6.977,0,0,0,0,0,0,0,6.9972,6.9968,6.993,6.9922,6.9917,6.9902,6.9896,6.9886,6.9846,6.9866,6.9862,6.9857,6.9809,6.9801,6.9797,6.9783,6.9772,6.9771,6.977,6.9769,6.9782,6.9783,0,0,0,0,0,0,6.9981,6.997,6.9931,6.9928,6.994,6.9903,6.9896,6.9889,6.9847,6.9839,6.9858,6.9855,6.9804,6.9799,6.9795,6.981,6.977,6.9769,6.9768,6.9781,6.9783,6.9784,0,0,0,0,0,0,6.9982,6.9978,6.9934,6.9948,6.9941,6.9903,6.9896,6.9889,6.988,6.984,6.9832,6.9857,6.9803,6.9797,6.9793,6.9807,6.9769,6.9767,6.978,6.9782,6.9783,6.9839,0,0,0,0,0,0,6.9984,6.9978,6.9984,6.9949,6.9941,6.9933,6.9897,6.9888,6.9879,6.9874,6.9838,6.983,6.9801,6.9795,6.9791,6.9804,6.9766,6.9778,6.9781,6.9783,6.9836,6.9842,6.9848,0,0,0,0,0,6.9986,6.9999,6.9984,6.998,6.9947,6.9934,6.9929,6.9898,6.988,6.9885,6.986,6.9832,6.9806,6.9795,6.979,6.9803,6.9777,6.978,6.9782,6.9833,6.9841,6.9848,0,0,0,0,0,0,7.0033,6.9994,6.9977,6.998,6.9961,6.9925,6.993,6.9907,6.9891,6.9887,6.9846,6.9838,6.9839,6.982,6.9809,6.9816,6.9788,6.979,6.9828,6.9835,6.9842,6.9846,6.9765,0,0,0,0,0,7.0045,7.0039,7.0004,7.001,7.0002,6.9968,6.9961,6.9939,6.9917,6.9908,6.9882,6.9861,6.9849,6.9841,6.9827,6.9833,6.9825,6.984,6.9846,6.9851,6.9853,6.9858,6.9865,6.9793,6.9793,6.9793,0,0,7.0067,7.0045,7.0043,7.002,7.0002,6.9997,6.9961,6.9956,6.9952,6.9906,6.9902,6.9883,6.9856,6.9858,6.9858,6.9843,6.9872,6.9855,6.986,6.9858,6.9862,6.9869,6.9875,6.9795,6.9794,6.9794,0,0,7.0106,7.0088,7.0093,7.0078,7.0054,7.0031,7.0033,7.0001,6.9988,6.9983,6.995,6.9944,6.9922,6.9906,6.9895,6.9932,6.9906,6.9928,6.9961,6.9966,6.9972,6.9977,6.9992,6.9998,6.9931,6.9931,6.9931,0,7.0136,7.0128,7.0097,7.0096,7.0087,7.0049,7.0054,7.004,7.0012,7.0006,6.999,6.9966,6.9945,6.9944,6.9954,6.9946,6.9946,6.9932,6.9974,6.9979,6.9983,6.9997,7.0002,6.9934,6.9933,6.9933,6.9933,0,7.0168,7.0163,7.017,7.0148,7.0139,7.014,7.0109,7.0105,7.0084,7.0064,7.0061,7.0035,7.0017,7.0015,6.9993,7.0012,7.0004,6.9982,6.9953,6.9993,7.0006,7.0011,6.9938,6.9937,6.9936,6.9935,0,0,7.0233,7.0197,7.02,7.019,7.0163,7.0158,7.0159,7.0144,7.0142,7.0124,7.0124,7.0109,7.009,7.0077,7.0054,7.0058,7.0093,7.0036,7.0034,7.0048,7.0115,7.0132,7.0139,7.0076,7.0077,7.0077,7.0118,0,7.0268,7.0268,7.0242,7.0249,7.0246,7.0212,7.0212,7.0196,7.0177,7.0171,7.0149,7.0141,7.0115,7.0108,7.0111,7.0088,7.0105,7.0084,7.0075,7.0075,7.0084,7.0145,7.0163,7.0202,7.0122,7.0123,7.0123,0,7.0307,7.0297,7.0305,7.0281,7.0278,7.0279,7.0266,7.026,7.0241,7.0227,7.0216,7.0191,7.0189,7.0163,7.0162,7.0148,7.0143,7.0132,7.0133,7.013,7.0102,7.0146,7.0213,7.022,7.013,7.013,7.0129,0,7.0357,7.0343,7.0348,7.034,7.0312,7.0314,7.0302,7.0282,7.0276,7.0263,7.0259,7.0246,7.0239,7.0229,7.0201,7.0184,7.0203,7.0174,7.0192,7.0193,7.0197,7.0198,7.0266,7.0193,7.0193,7.0193,7.0193,0,7.0399,7.0405,7.037,7.0372,7.0379,7.0349,7.0357,7.0341,7.0325,7.0324,7.0292,7.0291,7.0254,7.025,7.0227,7.0231,7.0227,7.0217,7.0211,7.022,7.0222,7.0216,7.0213,7.0195,7.0194,7.0194,7.0194,0,7.0454,7.043,7.0433,7.0407,7.0401,7.0408,7.0385,7.0387,7.0368,7.0367,7.0365,7.0335,7.0328,7.03,7.0285,7.0271,7.0282,7.027,7.0289,7.0286,7.0307,7.0306,7.0374,7.0383,7.0304,7.0304,7.0305,0,7.0483,7.0488,7.0464,7.0462,7.0453,7.0449,7.0445,7.0416,7.0412,7.0393,7.0397,7.0388,7.038,7.0371,7.0347,7.0337,7.0325,7.035,7.0323,7.0333,7.0327,7.0328,7.0329,7.0356,7.0357,7.0357,7.0358,0,7.0537,7.0526,7.0521,7.0513,7.0509,7.05,7.0489,7.0489,7.0457,7.0455,7.0449,7.0443,7.0431,7.0423,7.041,7.0396,7.0373,7.0367,7.0371,7.0381,7.0393,7.0389,7.0306,7.0365,7.0365,7.0364,7.0364,7.0363,7.058,7.0585,7.057,7.0566,7.0556,7.0548,7.0549,7.0532,7.0528,7.0517,7.05,7.0498,7.0481,7.0461,7.045,7.0448,7.0434,7.0439,7.0441,7.0443,7.0448,7.0394,7.0445,7.0445,7.0444,7.0444,7.0444,0,7.0635,7.0624,7.0621,7.061,7.0607,7.0588,7.0576,7.0575,7.0574,7.0561,7.0555,7.055,7.0544,7.0522,7.0513,7.0516,7.0505,7.0514,7.0514,7.0512,7.046,7.0458,7.0524,7.0524,7.0524,7.0524,7.0524,7.0524,7.0663,7.067,7.0658,7.066,7.0649,7.0648,7.0644,7.0637,7.0627,7.0624,7.062,7.0606,7.059,7.0581,7.0575,7.0568,7.0567,7.0581,7.0571,7.0523,7.0515,7.0508,7.0506,7.058,7.058,7.0623,7.0624,7.0624]}]]